Location: El Chorro
(10.0985°N, 67.3542°W)
Time: 18:51:03
(UTC+00:00)

USA 215 - Pass Details

Date: 15 November 2025
Orbit: 1101 x 1106 km, 123.0° (Epoch: 02 December)

Event Time Altitude Azimuth Distance (km) Brightness Sun altitude
Exits shadow 23:27:03 15° 125° (SE) 2,581 4.9 -20.4°
Maximum altitude 23:32:22 55° 52° (NE) 1,303 3.3 -21.6°
Drops below altitude 10° 23:38:42 10° 336° (NNW) 2,954 5.6 -23.1°
Sets 23:41:13 0° 332° (NNW) 3,912 6.3 -23.7°
